Volver al catálogo

Sitro-TD-3

ActivoComunicacionesSSO
NORAD 67270·PAYLOAD·🇷🇺 Russia

Lanzado Dec 28, 2025 desde Vostochny Cosmodrome

Loading…

Próximos Pases (próximas 24 horas)

TLE

ActualizadoSource: Space-Track

Época: Sep 14, 2026, 11:19 UTC

1 67270U 25313Y   26257.47157001  .00006780  00000-0  27574-3 0  9992
2 67270  97.3868 330.9237 0015060  54.2123 306.0512 15.24751478 39554

Sigue Sitro-TD-3 en tiempo real con AllMySat

Download on the App Store